This demonstration page uses our WeatherBlox Daily Observations layout. Learn more.

Left ArrowRight Arrow

34.02893, -84.19858

Hourly Observations for May 17, 2015

Temp ( °F °C ) Dew Point ( °F °C ) Humidity (%) Winds ( mph kmh ) Pressure ( in mb ) Visibility ( mi km ) Precip ( " mm )
12:53 am 00:53 Mostly Clear 73 22.8 60 15.6 64 64 SSE 5 7 30.19 1022 9 14 0.00 0.00
1:53 am 01:53 Partly Cloudy 73 22.8 60 15.6 64 64 S 10 17 30.17 1022 9 14 0.00 0.00
2:53 am 02:53 Mostly Clear 71 21.7 60 15.6 68 68 SSE 8 13 30.16 1021 8 13 0.00 0.00
3:53 am 03:53 Mostly Clear 70 21.1 60 15.6 71 71 VRB 6 9 30.15 1021 8 13 0.00 0.00
4:53 am 04:53 Mostly Clear 69 20.6 60 15.6 73 73 SSE 6 9 30.15 1021 8 13 0.00 0.00
5:53 am 05:53 Clear 68 20 60 15.6 76 76 SSE 3 6 30.17 1022 8 13 0.00 0.00
6:53 am 06:53 Mostly Cloudy 67 19.4 60 15.6 79 79 S 3 6 30.21 1023 7 11 0.00 0.00
7:53 am 07:53 Cloudy 69 20.6 61 16.1 76 76 VRB 3 6 30.23 1024 7 11 0.00 0.00
8:53 am 08:53 Cloudy 70 21.1 61 16.1 73 73 SSE 6 9 30.24 1024 7 11 0.00 0.00
9:53 am 09:53 Mostly Cloudy 72 22.2 62 16.7 71 71 S 7 11 30.24 1024 8 13 0.00 0.00
10:53 am 10:53 Cloudy 74 23.3 63 17.2 69 69 S 7 11 30.24 1024 7 11 0.00 0.00
11:53 am 11:53 Cloudy 76 24.4 64 17.8 67 67 Calm 30.24 1024 7 11 0.00 0.00
12:53 pm 12:53 Partly Cloudy 80 26.7 66 18.9 62 62 VRB 6 9 30.22 1024 7 11 0.00 0.00
1:53 pm 13:53 Cloudy 84 28.9 66 18.9 55 55 VRB 3 6 30.20 1023 7 11 0.00 0.00
2:53 pm 14:53 Mostly Cloudy with Light Rain 78 25.6 67 19.4 69 69 SE 3 6 30.19 1023 5 8 0.00 0.03
3:53 pm 15:53 Cloudy with Haze 78 25.6 70 21.1 76 76 N 9 15 30.17 1022 6 10 0.00 0.03
4:50 pm 16:50 Cloudy with Rain 72 22 70 21 94 94 NW 18 30 30.18 1022 2 2 0.00 0.00
4:53 pm 16:53 Cloudy with Heavy Rain 71 21.7 69 20.6 94 94 NW 16 26 30.18 1022 1 2 0.08 2.03
4:59 pm 16:59 Cloudy with Heavy Rain 71 21.7 70 21.1 96 96 NW 17 28 30.18 1022 1 1 0.13 3.30
5:10 pm 17:10 Cloudy with Heavy Rain 70 21 70 21 100 100 WNW 10 17 30.21 1023 0 0 0.00 0.00
5:26 pm 17:26 Cloudy with Strong Thunderstorms 70 21 70 21 100 100 NNE 5 7 30.21 1023 1 1 0.00 0.00
5:30 pm 17:30 Cloudy with Heavy Rain 70 21 70 21 100 100 Calm 30.21 1023 1 1 0.00 0.00
5:39 pm 17:39 Cloudy with Light Rain 70 21.1 69 20.6 97 97 VRB 3 6 30.21 1023 2 2 0.76 19.30
5:53 pm 17:53 Cloudy with Light Rain 70 21.1 69 20.6 97 97 E 6 9 30.20 1023 5 8 0.79 20.07
6:46 pm 18:46 Cloudy with Mist and Fog 72 22 70 21 94 94 E 3 6 30.21 1023 5 8 0.00 0.00
6:53 pm 18:53 Mostly Cloudy with Mist and Fog 73 22.8 70 21.1 90 90 Calm 30.19 1022 4 6 0.01 0.25
7:53 pm 19:53 Mostly Cloudy with Mist and Fog 72 22.2 69 20.6 91 91 NNE 6 9 30.18 1022 5 8 0.00 0.00
8:53 pm 20:53 Mostly Cloudy with Mist and Fog 71 21.7 69 20.6 94 94 Calm 30.18 1022 5 8 0.00 0.00
9:53 pm 21:53 Mostly Cloudy with Mist and Fog 71 21.7 69 20.6 94 94 Calm 30.20 1023 5 8 0.00 0.00
10:53 pm 22:53 Partly Cloudy with Mist and Fog 70 21.1 69 20.6 97 97 Calm 30.22 1023 4 6 0.00 0.00
11:53 pm 23:53 Clear with Mist and Fog 68 20 68 20 100 100 Calm 30.21 1023 1 2 0.00 0.00

Powered by AerisWeather